When you browse on this site, cookies collect data to enhance your experience and personalize the content and advertising you see.
Visit our Privacy Policy to learn more. By continuing to use the site, you agree to this use of cookies and data.
  • In Germany
  • List of Countries
  • For 7 days
  • Water Temperature
  • Weather Map
  • Weather Widgets
  • user-avatar
    Login

    Hourly Weather Morpeth

    Today, 23 September, Monday

    Time Temperature Precipitation Wind Pressure Humidity
    00:00 +16°C° 0.6 mm 2 mps 747 mmHg 95%
    01:00 +16°C° 0 mm 2 mps 747 mmHg 95%
    02:00 +15°C° 0 mm 2 mps 747 mmHg 94%
    03:00 +14°C° 0 mm 2 mps 747 mmHg 94%
    04:00 +14°C° 0 mm 2 mps 747 mmHg 94%
    05:00 +14°C° 0 mm 2 mps 748 mmHg 93%
    06:00 +13°C° 0 mm 3 mps 748 mmHg 93%
    07:00 +14°C° 0 mm 3 mps 748 mmHg 89%
    08:00 +16°C° 0 mm 3 mps 748 mmHg 86%
    09:00 +16°C° 0 mm 3 mps 749 mmHg 83%
    10:00 +17°C° 0 mm 4 mps 749 mmHg 79%
    11:00 +18°C° 0 mm 4 mps 749 mmHg 75%
    12:00 +17°C° 0 mm 5 mps 750 mmHg 70%
    13:00 +18°C° 0 mm 4 mps 750 mmHg 68%
    14:00 +18°C° 0 mm 4 mps 750 mmHg 66%
    15:00 +18°C° 0 mm 4 mps 750 mmHg 64%
    16:00 +17°C° 0 mm 4 mps 749 mmHg 68%
    17:00 +15°C° 0 mm 4 mps 749 mmHg 72%
    18:00 +14°C° 0 mm 4 mps 749 mmHg 76%
    19:00 +14°C° 0 mm 5 mps 749 mmHg 77%
    20:00 +14°C° 0 mm 6 mps 748 mmHg 79%
    21:00 +14°C° 0 mm 6 mps 748 mmHg 80%
    22:00 +14°C° 0.2 mm 6 mps 748 mmHg 83%
    23:00 +14°C° 0.2 mm 6 mps 748 mmHg 85%

    Tomorrow, 24 September, Tuesday

    Time Temperature Precipitation Wind Pressure Humidity
    00:00 +14°C° 0.2 mm 6 mps 747 mmHg 88%
    01:00 +14°C° 0.5 mm 6 mps 747 mmHg 90%
    02:00 +14°C° 0.5 mm 5 mps 747 mmHg 92%
    03:00 +14°C° 0.5 mm 5 mps 746 mmHg 94%
    04:00 +14°C° 0.1 mm 5 mps 746 mmHg 94%
    05:00 +14°C° 0.1 mm 5 mps 745 mmHg 94%
    06:00 +14°C° 0.1 mm 5 mps 745 mmHg 95%
    07:00 +15°C° 0 mm 5 mps 745 mmHg 93%
    08:00 +15°C° 0 mm 5 mps 744 mmHg 92%
    09:00 +16°C° 0 mm 5 mps 744 mmHg 90%
    10:00 +16°C° 0.2 mm 5 mps 744 mmHg 90%
    11:00 +16°C° 0.2 mm 5 mps 743 mmHg 90%
    12:00 +16°C° 0.2 mm 5 mps 743 mmHg 90%
    13:00 +16°C° 1.9 mm 5 mps 742 mmHg 92%
    14:00 +15°C° 1.9 mm 5 mps 742 mmHg 94%
    15:00 +15°C° 1.9 mm 5 mps 742 mmHg 96%
    16:00 +15°C° 0.8 mm 4 mps 741 mmHg 96%
    17:00 +14°C° 0.8 mm 4 mps 741 mmHg 96%
    18:00 +14°C° 0.8 mm 3 mps 741 mmHg 95%
    19:00 +14°C° 0.7 mm 4 mps 741 mmHg 94%
    20:00 +14°C° 0.7 mm 4 mps 742 mmHg 92%
    21:00 +13°C° 0.7 mm 5 mps 742 mmHg 91%
    22:00 +13°C° 0.4 mm 5 mps 742 mmHg 91%
    23:00 +13°C° 0.4 mm 4 mps 742 mmHg 92%

    Day after tomorrow, 25 September, Wednesday

    Time Temperature Precipitation Wind Pressure Humidity
    00:00 +13°C° 0.4 mm 4 mps 742 mmHg 92%
    01:00 +13°C° 0.1 mm 3 mps 742 mmHg 92%
    02:00 +13°C° 0.1 mm 3 mps 742 mmHg 93%
    03:00 +12°C° 0.1 mm 3 mps 742 mmHg 93%
    04:00 +13°C° 0 mm 2 mps 742 mmHg 93%
    05:00 +13°C° 0 mm 2 mps 742 mmHg 94%
    06:00 +13°C° 0 mm 2 mps 742 mmHg 94%
    07:00 +13°C° 0 mm 2 mps 742 mmHg 92%
    08:00 +14°C° 0 mm 2 mps 743 mmHg 90%
    09:00 +15°C° 0 mm 2 mps 743 mmHg 87%
    10:00 +16°C° 0 mm 2 mps 744 mmHg 84%
    11:00 +16°C° 0 mm 2 mps 744 mmHg 81%
    12:00 +17°C° 0 mm 2 mps 744 mmHg 77%
    13:00 +17°C° 0 mm 2 mps 744 mmHg 78%
    14:00 +17°C° 0 mm 3 mps 744 mmHg 78%
    15:00 +17°C° 0 mm 3 mps 744 mmHg 78%
    16:00 +16°C° 0 mm 3 mps 744 mmHg 82%
    17:00 +16°C° 0 mm 3 mps 744 mmHg 86%
    18:00 +14°C° 0 mm 3 mps 744 mmHg 89%
    19:00 +13°C° 0 mm 3 mps 744 mmHg 91%
    20:00 +13°C° 0 mm 3 mps 744 mmHg 92%
    21:00 +12°C° 0 mm 3 mps 743 mmHg 93%
    22:00 +12°C° 0 mm 3 mps 743 mmHg 92%
    23:00 +12°C° 0 mm 4 mps 742 mmHg 92%

    26 September, Thursday

    Time Temperature Precipitation Wind Pressure Humidity
    00:00 +12°C° 0 mm 4 mps 741 mmHg 92%
    01:00 +13°C° 2 mm 4 mps 741 mmHg 93%
    02:00 +13°C° 2 mm 5 mps 741 mmHg 95%
    03:00 +13°C° 2 mm 5 mps 740 mmHg 96%
    04:00 +13°C° 1.1 mm 4 mps 740 mmHg 96%
    05:00 +13°C° 1.1 mm 3 mps 740 mmHg 95%
    06:00 +14°C° 1.1 mm 2 mps 740 mmHg 94%
    07:00 +14°C° 0.1 mm 3 mps 740 mmHg 90%
    08:00 +14°C° 0.1 mm 3 mps 740 mmHg 87%
    09:00 +15°C° 0.1 mm 4 mps 741 mmHg 83%
    10:00 +15°C° 0.2 mm 4 mps 741 mmHg 81%
    11:00 +14°C° 0.2 mm 5 mps 741 mmHg 80%
    12:00 +14°C° 0.2 mm 6 mps 741 mmHg 78%
    13:00 +15°C° 0 mm 6 mps 741 mmHg 76%
    14:00 +15°C° 0 mm 6 mps 742 mmHg 74%
    15:00 +16°C° 0 mm 6 mps 742 mmHg 72%
    16:00 +15°C° 0 mm 6 mps 741 mmHg 75%
    17:00 +14°C° 0 mm 5 mps 741 mmHg 78%
    18:00 +13°C° 0 mm 4 mps 741 mmHg 80%
    19:00 +13°C° 0 mm 4 mps 742 mmHg 82%
    20:00 +12°C° 0 mm 4 mps 742 mmHg 83%
    21:00 +11°C° 0 mm 4 mps 742 mmHg 85%
    22:00 +11°C° 0 mm 4 mps 742 mmHg 85%
    23:00 +10°C° 0 mm 5 mps 742 mmHg 86%

    27 September, Friday

    Time Temperature Precipitation Wind Pressure Humidity
    00:00 +10°C° 0 mm 5 mps 742 mmHg 87%
    01:00 +9°C° 0 mm 5 mps 742 mmHg 87%
    02:00 +9°C° 0 mm 5 mps 742 mmHg 88%
    03:00 +10°C° 0 mm 4 mps 742 mmHg 88%
    04:00 +10°C° 0 mm 4 mps 742 mmHg 89%
    05:00 +10°C° 0 mm 4 mps 742 mmHg 89%
    06:00 +10°C° 0 mm 4 mps 742 mmHg 90%
    07:00 +10°C° 0 mm 5 mps 742 mmHg 86%
    08:00 +12°C° 0 mm 5 mps 742 mmHg 82%
    09:00 +13°C° 0 mm 6 mps 742 mmHg 79%
    10:00 +14°C° 0.1 mm 6 mps 741 mmHg 78%
    11:00 +14°C° 0.1 mm 6 mps 741 mmHg 78%
    12:00 +14°C° 0.1 mm 7 mps 741 mmHg 78%
    13:00 +14°C° 0.7 mm 6 mps 740 mmHg 79%
    14:00 +14°C° 0.7 mm 6 mps 740 mmHg 81%
    15:00 +13°C° 0.7 mm 6 mps 739 mmHg 82%
    16:00 +13°C° 0.2 mm 6 mps 739 mmHg 84%
    17:00 +11°C° 0.2 mm 6 mps 739 mmHg 86%
    18:00 +11°C° 0.2 mm 6 mps 739 mmHg 87%
    19:00 +10°C° 0.3 mm 6 mps 739 mmHg 87%
    20:00 +10°C° 0.3 mm 6 mps 739 mmHg 87%
    21:00 +10°C° 0.3 mm 6 mps 740 mmHg 87%
    22:00 +10°C° 0.1 mm 6 mps 740 mmHg 88%
    23:00 +10°C° 0.1 mm 6 mps 740 mmHg 88%

    28 September, Saturday

    Time Temperature Precipitation Wind Pressure Humidity
    00:00 +10°C° 0.1 mm 6 mps 740 mmHg 88%
    01:00 +10°C° 0 mm 7 mps 740 mmHg 88%
    02:00 +10°C° 0 mm 7 mps 740 mmHg 87%
    03:00 +10°C° 0 mm 7 mps 740 mmHg 86%
    04:00 +10°C° 0 mm 7 mps 740 mmHg 87%
    05:00 +9°C° 0 mm 7 mps 741 mmHg 87%
    06:00 +9°C° 0 mm 8 mps 741 mmHg 88%
    07:00 +10°C° 0 mm 8 mps 741 mmHg 85%
    08:00 +10°C° 0 mm 8 mps 741 mmHg 82%
    09:00 +11°C° 0 mm 8 mps 742 mmHg 80%
    10:00 +12°C° 0 mm 8 mps 742 mmHg 76%
    11:00 +13°C° 0 mm 8 mps 743 mmHg 72%
    12:00 +13°C° 0 mm 8 mps 743 mmHg 69%
    13:00 +14°C° 0.1 mm 7 mps 743 mmHg 69%
    14:00 +14°C° 0.1 mm 7 mps 743 mmHg 70%
    15:00 +14°C° 0.1 mm 7 mps 744 mmHg 71%
    16:00 +13°C° 0 mm 6 mps 744 mmHg 74%
    17:00 +13°C° 0 mm 6 mps 744 mmHg 78%
    18:00 +11°C° 0 mm 6 mps 745 mmHg 81%
    19:00 +10°C° 0 mm 6 mps 745 mmHg 83%
    20:00 +10°C° 0 mm 6 mps 745 mmHg 85%
    21:00 +9°C° 0 mm 6 mps 746 mmHg 87%
    22:00 +9°C° 0 mm 6 mps 746 mmHg 87%
    23:00 +9°C° 0 mm 5 mps 746 mmHg 87%
    Show more